VOZ133 YMML-YMHB

Flight info

Callsign VOZ133
Flight time 0h 59m
Altitude 35000
Route ML H169 IRSOM V33 TASUM
Aircraft B738/M-SDE2E3FGHIRWXY/LB1

Departure

Time 2026-04-25 07:56
Airport Melbourne Airport (YMML)

Arrival

Time 2026-04-25 08:56
Airport Hobart International Airport (YMHB)
Time Latitude Longitude Altitude Speed Heading
2026-04-25 07:21 -37.67058 144.84724 391 ft 0 kts 172°
2026-04-25 07:44 -37.67050 144.84723 391 ft 4 kts 162°
2026-04-25 07:44 -37.67025 144.84714 391 ft 4 kts 169°
2026-04-25 07:44 -37.66998 144.84711 392 ft 4 kts 187°
2026-04-25 07:45 -37.66975 144.84720 393 ft 2 kts 218°
2026-04-25 07:45 -37.66975 144.84721 393 ft 1 kts 218°
2026-04-25 07:49 -37.66986 144.84707 392 ft 5 kts 230°
2026-04-25 07:49 -37.67001 144.84657 391 ft 7 kts 257°
2026-04-25 07:50 -37.67010 144.84584 390 ft 9 kts 261°
2026-04-25 07:50 -37.67017 144.84501 388 ft 10 kts 263°
2026-04-25 07:50 -37.67044 144.84423 387 ft 10 kts 246°
2026-04-25 07:50 -37.67054 144.84336 385 ft 10 kts 262°
2026-04-25 07:51 -37.67091 144.84262 383 ft 11 kts 208°
2026-04-25 07:51 -37.67165 144.84261 381 ft 11 kts 172°
2026-04-25 07:51 -37.67240 144.84276 380 ft 11 kts 171°
2026-04-25 07:51 -37.67318 144.84291 378 ft 12 kts 171°
2026-04-25 07:52 -37.67419 144.84310 376 ft 17 kts 171°
2026-04-25 07:52 -37.67537 144.84333 373 ft 17 kts 171°
2026-04-25 07:52 -37.67661 144.84356 369 ft 19 kts 172°
2026-04-25 07:52 -37.67800 144.84381 364 ft 21 kts 172°
2026-04-25 07:53 -37.67941 144.84408 361 ft 20 kts 171°
2026-04-25 07:53 -37.68077 144.84432 353 ft 20 kts 172°
2026-04-25 07:53 -37.68210 144.84457 352 ft 19 kts 171°
2026-04-25 07:53 -37.68338 144.84469 351 ft 18 kts 192°
2026-04-25 07:54 -37.68370 144.84450 345 ft 0 kts 214°
2026-04-25 07:54 -37.68372 144.84449 345 ft 1 kts 214°
2026-04-25 07:54 -37.68404 144.84421 348 ft 9 kts 214°
2026-04-25 07:54 -37.68481 144.84356 348 ft 16 kts 214°
2026-04-25 07:55 -37.68548 144.84257 337 ft 14 kts 253°
2026-04-25 07:55 -37.68561 144.84141 351 ft 7 kts 267°
2026-04-25 07:55 -37.68537 144.84095 351 ft 7 kts 334°
2026-04-25 07:55 -37.68477 144.84080 349 ft 22 kts 352°
2026-04-25 07:56 -37.68087 144.84007 355 ft 90 kts 351°
2026-04-25 07:56 -37.67278 144.83857 376 ft 145 kts 353°
2026-04-25 07:56 -37.66185 144.83598 707 ft 167 kts 350°
2026-04-25 07:56 -37.65047 144.83344 1509 ft 163 kts 352°
2026-04-25 07:57 -37.63958 144.83157 2352 ft 158 kts 352°
2026-04-25 07:57 -37.62785 144.82948 2665 ft 183 kts 351°
2026-04-25 07:57 -37.61446 144.82697 2841 ft 205 kts 351°
2026-04-25 07:57 -37.59982 144.82427 3166 ft 216 kts 354°
2026-04-25 07:58 -37.58467 144.82699 3550 ft 226 kts 17°
2026-04-25 07:58 -37.57028 144.83500 4139 ft 226 kts 23°
2026-04-25 07:58 -37.55598 144.84397 4607 ft 232 kts 23°
2026-04-25 07:58 -37.54144 144.85309 5126 ft 238 kts 23°
2026-04-25 07:59 -37.52600 144.86265 5420 ft 255 kts 23°
2026-04-25 07:59 -37.50976 144.87263 6024 ft 263 kts 22°
2026-04-25 07:59 -37.49322 144.88277 6721 ft 267 kts 22°
2026-04-25 07:59 -37.47673 144.89439 7305 ft 277 kts 36°
2026-04-25 08:00 -37.46500 144.91360 8020 ft 287 kts 62°
2026-04-25 08:00 -37.46033 144.93837 8704 ft 298 kts 87°
2026-04-25 08:00 -37.46423 144.96424 9369 ft 307 kts 112°
2026-04-25 08:00 -37.47648 144.98636 10052 ft 312 kts 139°
2026-04-25 08:01 -37.49512 145.00012 10675 ft 312 kts 164°
2026-04-25 08:01 -37.51642 145.00493 11341 ft 311 kts 178°
2026-04-25 08:01 -37.53836 145.00622 11759 ft 324 kts 181°
2026-04-25 08:01 -37.56166 145.00680 11912 ft 345 kts 181°
2026-04-25 08:02 -37.58635 145.00751 12073 ft 365 kts 180°
2026-04-25 08:02 -37.61238 145.00860 12258 ft 383 kts 180°
2026-04-25 08:02 -37.63019 145.00953 12521 ft 389 kts 179°
2026-04-25 08:02 -37.65736 145.01112 13107 ft 393 kts 179°
2026-04-25 08:03 -37.68471 145.01280 13738 ft 395 kts 179°
2026-04-25 08:03 -37.71238 145.01451 14337 ft 399 kts 179°
2026-04-25 08:03 -37.74017 145.01418 14916 ft 401 kts 187°
2026-04-25 08:03 -37.76788 145.01025 15568 ft 401 kts 190°
2026-04-25 08:04 -37.79556 145.00527 16232 ft 402 kts 191°
2026-04-25 08:04 -37.82339 145.00028 16842 ft 405 kts 191°
2026-04-25 08:04 -37.85148 144.99557 17439 ft 408 kts 190°
2026-04-25 08:04 -37.87980 144.99113 18032 ft 411 kts 189°
2026-04-25 08:05 -37.90836 144.98684 18616 ft 414 kts 189°
2026-04-25 08:05 -37.93705 144.98257 19123 ft 417 kts 189°
2026-04-25 08:05 -37.96602 144.97868 19631 ft 421 kts 185°
2026-04-25 08:05 -37.99531 144.98324 20103 ft 430 kts 164°
2026-04-25 08:06 -38.02362 144.99581 20648 ft 432 kts 162°
2026-04-25 08:06 -38.05201 145.00891 21130 ft 436 kts 162°
2026-04-25 08:06 -38.08069 145.02212 21582 ft 439 kts 162°
2026-04-25 08:06 -38.10952 145.03527 22046 ft 442 kts 162°
2026-04-25 08:07 -38.13844 145.04832 22717 ft 438 kts 162°
2026-04-25 08:07 -38.16670 145.06099 23447 ft 435 kts 162°
2026-04-25 08:07 -38.19536 145.07378 23897 ft 439 kts 162°
2026-04-25 08:07 -38.22430 145.08665 24218 ft 443 kts 162°
2026-04-25 08:08 -38.25365 145.09972 24550 ft 447 kts 162°
2026-04-25 08:08 -38.28310 145.11285 24945 ft 449 kts 162°
2026-04-25 08:08 -38.31262 145.12603 25355 ft 451 kts 162°
2026-04-25 08:08 -38.34227 145.13929 25732 ft 453 kts 162°
2026-04-25 08:09 -38.37213 145.15266 26083 ft 455 kts 162°
2026-04-25 08:09 -38.40216 145.16611 26426 ft 458 kts 162°
2026-04-25 08:09 -38.43225 145.17960 26769 ft 460 kts 162°
2026-04-25 08:09 -38.46256 145.19321 27126 ft 462 kts 162°
2026-04-25 08:10 -38.49299 145.20687 27481 ft 464 kts 162°
2026-04-25 08:10 -38.52357 145.22057 27808 ft 466 kts 163°
2026-04-25 08:10 -38.55427 145.23413 28120 ft 468 kts 163°
2026-04-25 08:10 -38.58523 145.24771 28432 ft 470 kts 163°
2026-04-25 08:11 -38.61624 145.26128 28761 ft 472 kts 163°
2026-04-25 08:11 -38.64744 145.27495 29046 ft 475 kts 163°
2026-04-25 08:11 -38.67835 145.28853 29323 ft 477 kts 163°
2026-04-25 08:11 -38.70985 145.30239 29594 ft 479 kts 163°
2026-04-25 08:12 -38.74147 145.31634 29882 ft 481 kts 163°
2026-04-25 08:12 -38.77320 145.33037 30157 ft 483 kts 163°
2026-04-25 08:12 -38.80498 145.34443 30477 ft 483 kts 163°
2026-04-25 08:12 -38.83673 145.35849 30825 ft 482 kts 163°
2026-04-25 08:13 -38.86839 145.37254 31162 ft 481 kts 163°
2026-04-25 08:13 -38.90000 145.38656 31449 ft 481 kts 163°
2026-04-25 08:13 -38.93167 145.40062 31689 ft 482 kts 163°
2026-04-25 08:14 -38.99516 145.42885 32279 ft 482 kts 163°
2026-04-25 08:14 -39.02681 145.44294 32578 ft 481 kts 163°
2026-04-25 08:14 -39.05848 145.45706 32841 ft 482 kts 163°
2026-04-25 08:14 -39.08978 145.47102 33104 ft 482 kts 163°
2026-04-25 08:15 -39.12147 145.48517 33394 ft 482 kts 163°
2026-04-25 08:15 -39.15314 145.49933 33646 ft 482 kts 163°
2026-04-25 08:15 -39.18491 145.51354 33892 ft 483 kts 163°
2026-04-25 08:15 -39.21661 145.52774 34162 ft 482 kts 163°
2026-04-25 08:16 -39.24828 145.54194 34416 ft 482 kts 163°
2026-04-25 08:16 -39.27995 145.55615 34672 ft 481 kts 164°
2026-04-25 08:16 -39.31150 145.57032 34927 ft 480 kts 164°
2026-04-25 08:16 -39.34302 145.58450 35157 ft 479 kts 164°
2026-04-25 08:17 -39.37462 145.59871 35236 ft 482 kts 164°
2026-04-25 08:17 -39.43817 145.62732 35233 ft 482 kts 161°
2026-04-25 08:18 -39.50101 145.65571 35145 ft 476 kts 164°
2026-04-25 08:18 -39.56349 145.68399 35241 ft 477 kts 164°
2026-04-25 08:19 -39.62665 145.71259 35247 ft 483 kts 164°
2026-04-25 08:19 -39.68994 145.74133 35243 ft 486 kts 164°
2026-04-25 08:20 -39.75338 145.77023 35224 ft 479 kts 164°
2026-04-25 08:20 -39.81599 145.79879 35247 ft 477 kts 164°
2026-04-25 08:21 -39.87864 145.82739 35250 ft 477 kts 164°
2026-04-25 08:21 -39.94126 145.85605 35238 ft 477 kts 164°
2026-04-25 08:22 -40.00389 145.88476 35258 ft 478 kts 164°
2026-04-25 08:22 -40.06672 145.91380 35248 ft 480 kts 164°
2026-04-25 08:23 -40.12965 145.94303 35239 ft 481 kts 164°
2026-04-25 08:23 -40.19283 145.97244 35246 ft 482 kts 164°
2026-04-25 08:24 -40.25612 146.00193 35242 ft 483 kts 164°
2026-04-25 08:24 -40.31917 146.03138 35245 ft 485 kts 164°
2026-04-25 08:25 -40.38275 146.06112 35236 ft 485 kts 164°
2026-04-25 08:25 -40.44639 146.09096 35242 ft 486 kts 164°
2026-04-25 08:26 -40.51012 146.12089 35249 ft 486 kts 164°
2026-04-25 08:26 -40.57380 146.15087 35245 ft 487 kts 164°
2026-04-25 08:27 -40.63761 146.18097 35245 ft 486 kts 164°
2026-04-25 08:27 -40.70097 146.21091 35262 ft 486 kts 164°
2026-04-25 08:28 -40.76468 146.24102 35253 ft 486 kts 164°
2026-04-25 08:28 -40.82831 146.27113 35252 ft 486 kts 164°
2026-04-25 08:28 -40.86022 146.28626 35092 ft 489 kts 164°
2026-04-25 08:29 -40.89243 146.30152 34507 ft 493 kts 164°
2026-04-25 08:29 -40.92466 146.31684 33885 ft 492 kts 164°
2026-04-25 08:29 -40.95685 146.33217 33350 ft 489 kts 164°
2026-04-25 08:29 -40.98858 146.34731 32898 ft 484 kts 164°
2026-04-25 08:30 -41.02012 146.36236 32440 ft 479 kts 164°
2026-04-25 08:30 -41.05131 146.37725 31998 ft 474 kts 164°
2026-04-25 08:30 -41.08223 146.39201 31559 ft 470 kts 164°
2026-04-25 08:30 -41.11284 146.40664 31134 ft 466 kts 164°
2026-04-25 08:31 -41.14321 146.42117 30704 ft 462 kts 164°
2026-04-25 08:31 -41.17326 146.43574 30291 ft 458 kts 162°
2026-04-25 08:31 -41.20241 146.45230 30006 ft 451 kts 159°
2026-04-25 08:31 -41.23058 146.47006 29713 ft 444 kts 158°
2026-04-25 08:32 -41.25812 146.48804 29350 ft 439 kts 158°
2026-04-25 08:32 -41.28534 146.50583 28944 ft 434 kts 158°
2026-04-25 08:32 -41.31239 146.52335 28490 ft 431 kts 158°
2026-04-25 08:32 -41.33930 146.54058 28057 ft 427 kts 158°
2026-04-25 08:33 -41.36567 146.55735 27638 ft 424 kts 158°
2026-04-25 08:33 -41.39223 146.57418 27210 ft 421 kts 158°
2026-04-25 08:33 -41.41896 146.59109 26793 ft 419 kts 159°
2026-04-25 08:33 -41.44488 146.60750 26378 ft 416 kts 159°
2026-04-25 08:34 -41.47099 146.62404 25953 ft 414 kts 159°
2026-04-25 08:34 -41.49698 146.64054 25539 ft 412 kts 158°
2026-04-25 08:34 -41.52280 146.65694 25120 ft 411 kts 158°
2026-04-25 08:34 -41.54861 146.67335 24680 ft 410 kts 158°
2026-04-25 08:35 -41.57435 146.68974 24266 ft 408 kts 158°
2026-04-25 08:35 -41.59995 146.70605 23835 ft 408 kts 158°
2026-04-25 08:35 -41.62557 146.72238 23353 ft 406 kts 158°
2026-04-25 08:35 -41.65101 146.73863 22910 ft 404 kts 158°
2026-04-25 08:36 -41.67626 146.75485 22466 ft 402 kts 158°
2026-04-25 08:36 -41.70141 146.77111 22046 ft 400 kts 158°
2026-04-25 08:36 -41.72634 146.78725 21631 ft 398 kts 158°
2026-04-25 08:36 -41.75121 146.80338 21210 ft 396 kts 158°
2026-04-25 08:37 -41.77591 146.81940 20804 ft 394 kts 157°
2026-04-25 08:37 -41.80055 146.83540 20394 ft 392 kts 157°
2026-04-25 08:37 -41.82503 146.85129 19990 ft 391 kts 157°
2026-04-25 08:37 -41.84946 146.86715 19563 ft 390 kts 157°
2026-04-25 08:38 -41.87388 146.88303 19143 ft 390 kts 157°
2026-04-25 08:38 -41.89824 146.89888 18738 ft 389 kts 157°
2026-04-25 08:38 -41.92260 146.91475 18290 ft 389 kts 157°
2026-04-25 08:38 -41.94688 146.93057 17854 ft 387 kts 157°
2026-04-25 08:39 -41.97110 146.94638 17430 ft 386 kts 157°
2026-04-25 08:39 -41.99516 146.96210 17025 ft 384 kts 157°
2026-04-25 08:39 -42.01910 146.97774 16615 ft 382 kts 157°
2026-04-25 08:39 -42.04295 146.99335 16222 ft 380 kts 157°
2026-04-25 08:40 -42.06667 147.00887 15805 ft 378 kts 157°
2026-04-25 08:40 -42.09028 147.02435 15417 ft 376 kts 157°
2026-04-25 08:40 -42.11380 147.03976 15014 ft 376 kts 157°
2026-04-25 08:40 -42.13727 147.05516 14605 ft 375 kts 156°
2026-04-25 08:41 -42.16075 147.07058 14201 ft 374 kts 156°
2026-04-25 08:41 -42.18353 147.08762 13750 ft 376 kts 148°
2026-04-25 08:41 -42.20482 147.10792 13304 ft 375 kts 146°
2026-04-25 08:41 -42.22545 147.12867 12905 ft 373 kts 145°
2026-04-25 08:42 -42.24615 147.14973 12501 ft 372 kts 145°
2026-04-25 08:42 -42.26679 147.17064 12094 ft 370 kts 145°
2026-04-25 08:42 -42.28733 147.19130 11705 ft 367 kts 145°
2026-04-25 08:42 -42.30776 147.21173 11322 ft 364 kts 145°
2026-04-25 08:43 -42.32812 147.23200 10948 ft 362 kts 146°
2026-04-25 08:43 -42.34806 147.25184 10692 ft 348 kts 146°
2026-04-25 08:43 -42.36729 147.27096 10419 ft 336 kts 146°
2026-04-25 08:43 -42.38570 147.28926 10255 ft 322 kts 146°
2026-04-25 08:44 -42.40346 147.30692 10105 ft 314 kts 146°
2026-04-25 08:44 -42.42104 147.32438 9863 ft 315 kts 146°
2026-04-25 08:44 -42.43878 147.34198 9558 ft 317 kts 146°
2026-04-25 08:44 -42.45569 147.35878 9262 ft 317 kts 146°
2026-04-25 08:45 -42.47323 147.37625 8967 ft 309 kts 146°
2026-04-25 08:45 -42.49043 147.39340 8667 ft 306 kts 146°
2026-04-25 08:45 -42.50752 147.41043 8379 ft 304 kts 146°
2026-04-25 08:45 -42.52455 147.42742 8092 ft 303 kts 146°
2026-04-25 08:46 -42.54143 147.44428 7799 ft 301 kts 146°
2026-04-25 08:46 -42.55828 147.46112 7510 ft 299 kts 145°
2026-04-25 08:46 -42.57489 147.47774 7223 ft 295 kts 146°
2026-04-25 08:46 -42.59135 147.49421 6957 ft 294 kts 146°
2026-04-25 08:47 -42.60778 147.51066 6674 ft 292 kts 145°
2026-04-25 08:47 -42.62411 147.52701 6368 ft 291 kts 145°
2026-04-25 08:47 -42.64010 147.54306 6063 ft 289 kts 145°
2026-04-25 08:47 -42.65620 147.55922 5808 ft 286 kts 145°
2026-04-25 08:48 -42.67210 147.57519 5524 ft 281 kts 146°
2026-04-25 08:48 -42.68762 147.59080 5242 ft 274 kts 145°
2026-04-25 08:48 -42.70275 147.60601 4970 ft 266 kts 145°
2026-04-25 08:48 -42.71743 147.62077 4707 ft 259 kts 145°
2026-04-25 08:49 -42.73156 147.63501 4570 ft 247 kts 146°
2026-04-25 08:49 -42.74503 147.64857 4455 ft 234 kts 146°
2026-04-25 08:49 -42.75776 147.66140 4361 ft 219 kts 146°
2026-04-25 08:49 -42.76962 147.67338 4284 ft 206 kts 146°
2026-04-25 08:50 -42.78105 147.68490 4223 ft 204 kts 146°
2026-04-25 08:50 -42.78883 147.69274 4135 ft 208 kts 146°
2026-04-25 08:50 -42.80069 147.70467 3926 ft 214 kts 147°
2026-04-25 08:50 -42.81376 147.71222 3640 ft 198 kts 184°
2026-04-25 08:51 -42.82601 147.70807 3489 ft 171 kts 211°
2026-04-25 08:51 -42.83556 147.70007 3310 ft 154 kts 222°
2026-04-25 08:51 -42.84396 147.69190 3118 ft 148 kts 223°
2026-04-25 08:51 -42.85231 147.68371 3023 ft 149 kts 223°
2026-04-25 08:52 -42.86082 147.67539 2745 ft 154 kts 222°
2026-04-25 08:52 -42.86926 147.66710 2505 ft 145 kts 225°
2026-04-25 08:52 -42.87648 147.65805 2294 ft 139 kts 234°
2026-04-25 08:52 -42.88233 147.64737 1930 ft 139 kts 245°
2026-04-25 08:53 -42.88641 147.63581 1811 ft 135 kts 255°
2026-04-25 08:53 -42.88878 147.62368 1690 ft 130 kts 264°
2026-04-25 08:53 -42.88947 147.61133 1559 ft 132 kts 273°
2026-04-25 08:53 -42.88847 147.59867 1408 ft 138 kts 283°
2026-04-25 08:54 -42.88557 147.58600 1244 ft 141 kts 293°
2026-04-25 08:54 -42.88079 147.57435 1064 ft 140 kts 306°
2026-04-25 08:54 -42.87458 147.56430 887 ft 138 kts 312°
2026-04-25 08:54 -42.86806 147.55508 668 ft 139 kts 314°
2026-04-25 08:55 -42.86128 147.54565 451 ft 133 kts 315°
2026-04-25 08:55 -42.85458 147.53689 301 ft 134 kts 317°
2026-04-25 08:55 -42.84808 147.52804 161 ft 134 kts 313°
2026-04-25 08:55 -42.84161 147.51903 32 ft 130 kts 314°
2026-04-25 08:56 -42.83529 147.51055 21 ft 117 kts 316°
2026-04-25 08:56 -42.83177 147.50577 22 ft 60 kts 315°
2026-04-25 08:56 -42.82941 147.50226 21 ft 14 kts 287°
2026-04-25 08:56 -42.82859 147.50163 21 ft 4 kts 56°
2026-04-25 08:57 -42.82877 147.50194 21 ft 6 kts 143°
2026-04-25 08:57 -42.82939 147.50264 21 ft 16 kts 138°
2026-04-25 08:57 -42.83025 147.50378 21 ft 17 kts 134°
2026-04-25 08:57 -42.83110 147.50492 21 ft 17 kts 134°
2026-04-25 08:58 -42.83191 147.50601 22 ft 16 kts 135°
2026-04-25 08:58 -42.83281 147.50674 22 ft 16 kts 193°
2026-04-25 08:58 -42.83362 147.50582 23 ft 15 kts 224°
2026-04-25 08:58 -42.83450 147.50584 23 ft 14 kts 138°
2026-04-25 08:59 -42.83517 147.50673 21 ft 11 kts 135°
2026-04-25 08:59 -42.83581 147.50679 23 ft 7 kts 209°
2026-04-25 08:59 -42.83618 147.50634 22 ft 7 kts 225°
2026-04-25 08:59 -42.83647 147.50595 23 ft 3 kts 224°
2026-04-25 09:00 -42.83654 147.50586 21 ft 0 kts 224°